Tracking 18785 objects as of 23-July-2017
HD Live streaming from Space Station
objects crossing your sky now
MAYAK may become the brightest orbital object in the night sky!
Where is MAYAK now?
How to spot MAYAK

USA 15

Track USA 15 now!
10-day predictions
USA 15 is classified as:


NORAD ID: 16591
Int'l Code: 1986-014A
Perigee: 441.7 km
Apogee: 1,739.5 km
Inclination: 63.3 °
Period: 106.9 minutes
Semi major axis: 7461 km
RCS: Unknown
Launch date: February 9, 1986
Source: United States (US)
Launch site: AIR FORCE WESTERN TEST RANGE (AFWTR)
Your satellite tracking list
Your tracking list is empty





NASA's NSSDC Master Catalog

Two Line Element Set (TLE):
1 16591U 86014A   16251.85985552 0.00000400  00000-0  53438-4 0    07
2 16591  63.3150 192.5470 0869635  44.9883 315.0117 13.46968219    00
Source of the keplerian elements: McCants